Tracking 19562 objects as of 25-Mar-2019
HD Live streaming from Space Station
objects crossing your sky now

FLOCK 3P 47

Track FLOCK 3P 47 now!
10-day predictions
FLOCK 3P 47 is classified as:


NORAD ID: 42032
Int'l Code: 2017-008CN
Perigee: 490.9 km
Apogee: 504.0 km
Inclination: 97.4 °
Period: 94.4 minutes
Semi major axis: 6868 km
RCS: Unknown
Launch date: February 15, 2017
Source: United States (US)
Launch site: SRIHARIKOTA (SRI)
aabbcc
Your satellite tracking list
Your tracking list is empty




NASA's NSSDC Master Catalog

Two Line Element Set (TLE):
1 42032U 17008CN  19083.78732653 +.00001014 +00000-0 +43287-4 0  9993
2 42032 097.4150 151.6997 0009544 103.0972 257.1332 15.25157894116694
Source of the keplerian elements: AFSPC